Time,TemperatureF,DewpointF,PressureIn,WindDirection,WindDirectionDegrees,WindSpeedMPH,WindSpeedGustMPH,Humidity,HourlyPrecipIn,Conditions,Clouds,dailyrainin,SolarRadiationWatts/m^2,SoftwareType,DateUTC
2013-02-16 00:00:00,33.1,31.6,29.96,WNW,299,1.1,0.0,94,0.04,-SN,,0.25,0.0,WeatherDisplay:10.37,2013-02-16 05:00:00,
2013-02-16 00:05:00,33.2,31.7,29.97,WNW,299,0.0,0.0,94,0.03,-SN,,0.00,0.0,WeatherDisplay:10.37,2013-02-16 05:05:00,
2013-02-16 00:10:00,33.2,31.7,29.96,WNW,299,0.0,0.0,94,0.03,-SN,,0.00,0.0,WeatherDisplay:10.37,2013-02-16 05:10:00,
2013-02-16 00:15:00,33.2,31.7,29.96,WNW,299,0.0,0.0,94,0.02,-SN,,0.00,0.0,WeatherDisplay:10.37,2013-02-16 05:15:00,
2013-02-16 00:20:00,33.2,31.7,29.96,WNW,299,1.1,1.1,94,0.02,-SN,,0.00,0.0,WeatherDisplay:10.37,2013-02-16 05:20:00,
2013-02-16 00:23:00,33.2,31.7,29.96,WNW,299,0.0,0.0,94,0.02,-SN,,0.01,0.0,WeatherDisplay:10.37,2013-02-16 05:23:00,
2013-02-16 00:28:00,33.2,31.7,29.96,NW,309,1.1,1.1,94,0.02,-SN,,0.01,0.0,WeatherDisplay:10.37,2013-02-16 05:28:00,
2013-02-16 00:33:00,33.2,31.7,29.96,NW,309,0.0,0.0,94,0.02,-SN,,0.01,0.0,WeatherDisplay:10.37,2013-02-16 05:33:00,
2013-02-16 00:38:00,33.2,31.7,29.96,NW,309,0.0,0.0,94,0.02,-SN,,0.01,0.0,WeatherDisplay:10.37,2013-02-16 05:38:00,
2013-02-16 00:43:00,33.2,31.7,29.96,NW,309,0.0,0.0,94,0.02,-SN,,0.01,0.0,WeatherDisplay:10.37,2013-02-16 05:43:00,
2013-02-16 00:48:00,33.2,31.7,29.96,NW,309,0.0,0.0,94,0.02,-SN,,0.01,0.0,WeatherDisplay:10.37,2013-02-16 05:48:00,
2013-02-16 00:53:00,33.2,31.7,29.96,NW,309,3.5,3.5,94,0.01,-SN,,0.01,0.0,WeatherDisplay:10.37,2013-02-16 05:53:00,
2013-02-16 00:58:00,33.2,31.7,29.96,NW,309,0.0,0.0,94,0.01,-SN,,0.01,0.0,WeatherDisplay:10.37,2013-02-16 05:58:00,
2013-02-16 01:03:00,33.3,31.8,29.96,NW,309,0.0,0.0,94,0.01,RA,,0.01,0.0,WeatherDisplay:10.37,2013-02-16 06:03:00,
2013-02-16 01:08:00,33.2,31.7,29.97,NW,308,0.0,0.0,94,0.01,RA,,0.01,0.0,WeatherDisplay:10.37,2013-02-16 06:08:00,
2013-02-16 01:13:00,33.2,31.7,29.96,NW,308,0.0,0.0,94,0.01,RA,,0.01,0.0,WeatherDisplay:10.37,2013-02-16 06:13:00,
2013-02-16 01:18:00,33.1,31.6,29.96,NW,308,0.0,0.0,94,0.01,RA,,0.01,0.0,WeatherDisplay:10.37,2013-02-16 06:18:00,
2013-02-16 01:23:00,33.1,31.6,29.95,NW,308,0.0,0.0,94,0.00,OVC,,0.01,0.0,WeatherDisplay:10.37,2013-02-16 06:23:00,
2013-02-16 01:28:00,33.1,31.6,29.95,NW,308,0.0,0.0,94,0.00,OVC,,0.01,0.0,WeatherDisplay:10.37,2013-02-16 06:28:00,
2013-02-16 01:33:00,33.0,31.5,29.95,NW,308,0.0,0.0,94,0.00,OVC,,0.01,0.0,WeatherDisplay:10.37,2013-02-16 06:33:00,
2013-02-16 01:38:00,33.0,31.5,29.95,NW,308,0.0,0.0,94,0.00,OVC,,0.01,0.0,WeatherDisplay:10.37,2013-02-16 06:38:00,
2013-02-16 01:43:00,32.9,31.4,29.95,NW,308,0.0,0.0,94,0.00,OVC,,0.01,0.0,WeatherDisplay:10.37,2013-02-16 06:43:00,
2013-02-16 01:48:00,32.9,31.4,29.94,NW,308,0.0,0.0,94,0.00,OVC,,0.01,0.0,WeatherDisplay:10.37,2013-02-16 06:48:00,
2013-02-16 01:53:00,32.9,31.4,29.95,NW,308,0.0,0.0,94,0.00,OVC,,0.01,0.0,WeatherDisplay:10.37,2013-02-16 06:53:00,
2013-02-16 01:58:00,33.0,31.5,29.95,NW,308,0.0,0.0,94,0.00,OVC,,0.01,0.0,WeatherDisplay:10.37,2013-02-16 06:58:00,
2013-02-16 02:03:00,33.0,31.5,29.95,NW,308,0.0,0.0,94,0.00,OVC,,0.01,0.0,WeatherDisplay:10.37,2013-02-16 07:03:00,
2013-02-16 02:08:00,32.9,31.4,29.94,NW,308,0.0,0.0,94,0.00,OVC,,0.01,0.0,WeatherDisplay:10.37,2013-02-16 07:08:00,
2013-02-16 02:13:00,32.9,31.4,29.94,NW,308,0.0,0.0,94,0.00,OVC,,0.01,0.0,WeatherDisplay:10.37,2013-02-16 07:13:00,
2013-02-16 02:18:00,32.9,31.4,29.94,NW,308,0.0,0.0,94,0.00,OVC,,0.01,0.0,WeatherDisplay:10.37,2013-02-16 07:18:00,
2013-02-16 02:23:00,32.8,31.3,29.93,NW,308,0.0,0.0,94,0.00,OVC,,0.01,0.0,WeatherDisplay:10.37,2013-02-16 07:23:00,
2013-02-16 02:28:00,32.8,31.3,29.94,NW,308,0.0,0.0,94,0.00,OVC,,0.01,0.0,WeatherDisplay:10.37,2013-02-16 07:28:00,
2013-02-16 02:33:00,32.7,31.2,29.94,NW,308,0.0,0.0,94,0.00,OVC,,0.01,0.0,WeatherDisplay:10.37,2013-02-16 07:33:00,
2013-02-16 02:38:00,32.6,31.1,29.94,NW,308,0.0,0.0,94,0.00,OVC,,0.01,0.0,WeatherDisplay:10.37,2013-02-16 07:38:00,
2013-02-16 02:43:00,32.5,31.0,29.94,West,281,0.0,0.0,94,0.00,OVC,,0.01,0.0,WeatherDisplay:10.37,2013-02-16 07:43:00,
2013-02-16 02:48:00,32.2,30.7,29.94,West,281,0.0,0.0,94,0.00,OVC,,0.01,0.0,WeatherDisplay:10.37,2013-02-16 07:48:00,
2013-02-16 02:53:00,31.9,30.4,29.93,West,281,0.0,0.0,94,0.00,OVC,,0.01,0.0,WeatherDisplay:10.37,2013-02-16 07:53:00,
2013-02-16 02:58:00,31.8,30.3,29.93,West,266,0.0,0.0,94,0.00,OVC,,0.01,0.0,WeatherDisplay:10.37,2013-02-16 07:58:00,
2013-02-16 03:03:00,31.6,30.1,29.93,WNW,303,0.0,0.0,94,0.00,BKN,,0.01,0.0,WeatherDisplay:10.37,2013-02-16 08:03:00,
2013-02-16 03:08:00,31.5,30.0,29.93,WNW,298,0.0,0.0,94,0.00,BKN,,0.01,0.0,WeatherDisplay:10.37,2013-02-16 08:08:00,
2013-02-16 03:13:00,31.4,29.9,29.93,WNW,298,0.0,0.0,94,0.00,BKN,,0.01,0.0,WeatherDisplay:10.37,2013-02-16 08:13:00,
2013-02-16 03:18:00,31.3,29.8,29.93,WNW,298,0.0,0.0,94,0.00,BKN,,0.01,0.0,WeatherDisplay:10.37,2013-02-16 08:18:00,
2013-02-16 03:23:00,31.2,29.7,29.93,NW,312,0.0,0.0,94,0.00,BKN,,0.01,0.0,WeatherDisplay:10.37,2013-02-16 08:23:00,
2013-02-16 03:28:00,31.0,29.5,29.93,NW,312,0.0,0.0,94,0.00,BKN,,0.01,0.0,WeatherDisplay:10.37,2013-02-16 08:28:00,
2013-02-16 03:33:00,30.9,29.4,29.93,NW,312,0.0,0.0,94,0.00,BKN,,0.01,0.0,WeatherDisplay:10.37,2013-02-16 08:33:00,
2013-02-16 03:38:00,30.9,29.4,29.93,West,272,0.0,0.0,94,0.00,BKN,,0.01,0.0,WeatherDisplay:10.37,2013-02-16 08:38:00,
2013-02-16 03:43:00,30.9,29.4,29.93,West,272,0.0,0.0,94,0.00,BKN,,0.01,0.0,WeatherDisplay:10.37,2013-02-16 08:43:00,
2013-02-16 03:48:00,30.8,29.5,29.93,West,272,0.0,0.0,95,0.00,BKN,,0.01,0.0,WeatherDisplay:10.37,2013-02-16 08:48:00,
2013-02-16 03:53:00,30.8,29.5,29.93,West,272,0.0,0.0,95,0.00,BKN,,0.01,0.0,WeatherDisplay:10.37,2013-02-16 08:53:00,
2013-02-16 03:58:00,30.8,29.5,29.93,West,272,0.0,0.0,95,0.00,BKN,,0.01,0.0,WeatherDisplay:10.37,2013-02-16 08:58:00,
2013-02-16 04:03:00,30.8,29.5,29.92,West,272,0.0,0.0,95,0.00,BKN,,0.01,0.0,WeatherDisplay:10.37,2013-02-16 09:03:00,
2013-02-16 04:08:00,30.8,29.5,29.92,West,272,0.0,0.0,95,0.00,BKN,,0.01,0.0,WeatherDisplay:10.37,2013-02-16 09:08:00,
2013-02-16 04:13:00,30.7,29.4,29.92,West,272,0.0,0.0,95,0.00,BKN,,0.01,0.0,WeatherDisplay:10.37,2013-02-16 09:13:00,
2013-02-16 04:18:00,30.8,29.5,29.92,West,272,0.0,0.0,95,0.00,BKN,,0.01,0.0,WeatherDisplay:10.37,2013-02-16 09:18:00,
2013-02-16 04:23:00,30.8,29.5,29.92,West,272,0.0,0.0,95,0.00,BKN,,0.01,0.0,WeatherDisplay:10.37,2013-02-16 09:23:00,
2013-02-16 04:28:00,30.8,29.5,29.92,WNW,290,0.0,0.0,95,0.00,BKN,,0.01,0.0,WeatherDisplay:10.37,2013-02-16 09:28:00,
2013-02-16 04:33:00,30.8,29.5,29.93,WNW,290,0.0,0.0,95,0.00,BKN,,0.01,0.0,WeatherDisplay:10.37,2013-02-16 09:33:00,
2013-02-16 04:38:00,30.9,29.6,29.92,WNW,290,0.0,0.0,95,0.00,BKN,,0.01,0.0,WeatherDisplay:10.37,2013-02-16 09:38:00,
2013-02-16 04:43:00,31.0,29.7,29.93,WNW,290,0.0,0.0,95,0.00,BKN,,0.01,0.0,WeatherDisplay:10.37,2013-02-16 09:43:00,
2013-02-16 04:48:00,31.0,29.7,29.93,WNW,290,0.0,0.0,95,0.00,BKN,,0.01,0.0,WeatherDisplay:10.37,2013-02-16 09:48:00,
2013-02-16 04:53:00,31.0,29.7,29.93,WNW,290,0.0,0.0,95,0.00,BKN,,0.01,0.0,WeatherDisplay:10.37,2013-02-16 09:53:00,
2013-02-16 04:58:00,30.9,29.6,29.92,WNW,290,0.0,0.0,95,0.00,BKN,,0.01,0.0,WeatherDisplay:10.37,2013-02-16 09:58:00,
2013-02-16 05:03:00,30.9,29.6,29.92,WNW,290,0.0,0.0,95,0.00,BKN,,0.01,0.0,WeatherDisplay:10.37,2013-02-16 10:03:00,
2013-02-16 05:08:00,30.9,29.6,29.92,WNW,290,0.0,0.0,95,0.00,BKN,,0.01,0.0,WeatherDisplay:10.37,2013-02-16 10:08:00,
2013-02-16 05:13:00,30.8,29.5,29.92,WNW,294,0.0,0.0,95,0.00,BKN,,0.01,0.0,WeatherDisplay:10.37,2013-02-16 10:13:00,
2013-02-16 05:18:00,30.6,29.3,29.92,NW,315,0.0,0.0,95,0.00,BKN,,0.01,0.0,WeatherDisplay:10.37,2013-02-16 10:18:00,
2013-02-16 05:23:00,30.5,29.2,29.92,WNW,294,0.0,0.0,95,0.00,BKN,,0.01,0.0,WeatherDisplay:10.37,2013-02-16 10:23:00,
2013-02-16 05:28:00,30.4,29.1,29.93,WNW,294,0.0,0.0,95,0.00,BKN,,0.01,0.0,WeatherDisplay:10.37,2013-02-16 10:28:00,
2013-02-16 05:33:00,30.3,29.0,29.92,NW,310,0.0,0.0,95,0.00,BKN,,0.01,0.0,WeatherDisplay:10.37,2013-02-16 10:33:00,
2013-02-16 05:38:00,30.3,29.0,29.93,NW,310,0.0,0.0,95,0.00,BKN,,0.01,0.0,WeatherDisplay:10.37,2013-02-16 10:38:00,
2013-02-16 05:43:00,30.3,29.0,29.93,NW,310,0.0,0.0,95,0.00,BKN,,0.01,0.0,WeatherDisplay:10.37,2013-02-16 10:43:00,
2013-02-16 05:48:00,30.3,29.0,29.92,NW,310,0.0,0.0,95,0.00,BKN,,0.01,0.0,WeatherDisplay:10.37,2013-02-16 10:48:00,
2013-02-16 05:53:00,30.3,29.0,29.92,NW,310,0.0,0.0,95,0.00,BKN,,0.01,0.0,WeatherDisplay:10.37,2013-02-16 10:53:00,
2013-02-16 05:58:00,30.3,29.0,29.92,NW,310,0.0,0.0,95,0.00,BKN,,0.01,0.0,WeatherDisplay:10.37,2013-02-16 10:58:00,
2013-02-16 06:03:00,30.3,29.0,29.92,NW,310,0.0,0.0,95,0.00,BKN,,0.01,0.0,WeatherDisplay:10.37,2013-02-16 11:03:00,
2013-02-16 06:08:00,30.3,29.0,29.92,NW,310,0.0,0.0,95,0.00,BKN,,0.01,0.0,WeatherDisplay:10.37,2013-02-16 11:08:00,
2013-02-16 06:13:00,30.3,29.0,29.92,NW,310,0.0,0.0,95,0.00,BKN,,0.01,0.0,WeatherDisplay:10.37,2013-02-16 11:13:00,
2013-02-16 06:18:00,30.3,29.0,29.92,NW,310,0.0,0.0,95,0.00,BKN,,0.01,0.0,WeatherDisplay:10.37,2013-02-16 11:18:00,
2013-02-16 06:23:00,30.3,29.0,29.92,NW,310,0.0,0.0,95,0.00,BKN,,0.01,0.0,WeatherDisplay:10.37,2013-02-16 11:23:00,
2013-02-16 06:28:00,30.4,29.1,29.92,WNW,296,0.0,0.0,95,0.00,BKN,,0.01,0.0,WeatherDisplay:10.37,2013-02-16 11:28:00,
2013-02-16 06:33:00,30.3,29.0,29.92,WNW,303,0.0,0.0,95,0.00,BKN,,0.01,0.0,WeatherDisplay:10.37,2013-02-16 11:33:00,
2013-02-16 06:38:00,30.2,28.9,29.92,WNW,295,0.0,0.0,95,0.00,BKN,,0.01,0.0,WeatherDisplay:10.37,2013-02-16 11:38:00,
2013-02-16 06:43:00,30.1,28.8,29.93,WNW,293,0.0,0.0,95,0.00,BKN,,0.01,0.0,WeatherDisplay:10.37,2013-02-16 11:43:00,
2013-02-16 06:48:00,30.1,28.8,29.93,WNW,287,0.0,0.0,95,0.00,BKN,,0.01,0.0,WeatherDisplay:10.37,2013-02-16 11:48:00,
2013-02-16 06:53:00,30.2,28.9,29.93,WNW,295,0.0,0.0,95,0.00,BKN,,0.01,0.0,WeatherDisplay:10.37,2013-02-16 11:53:00,
2013-02-16 06:58:00,30.4,29.1,29.93,WNW,301,0.0,0.0,95,0.00,BKN,,0.01,0.0,WeatherDisplay:10.37,2013-02-16 11:58:00,
2013-02-16 07:03:00,30.5,29.2,29.93,WNW,303,0.0,0.0,95,0.00,OVC,,0.01,0.0,WeatherDisplay:10.37,2013-02-16 12:03:00,
2013-02-16 07:08:00,30.6,29.3,29.93,NW,304,0.0,0.0,95,0.00,OVC,,0.01,0.0,WeatherDisplay:10.37,2013-02-16 12:08:00,
2013-02-16 07:13:00,30.7,29.4,29.93,NW,308,0.0,0.0,95,0.00,OVC,,0.01,0.0,WeatherDisplay:10.37,2013-02-16 12:13:00,
2013-02-16 07:18:00,30.7,29.4,29.93,NW,309,0.0,0.0,95,0.00,OVC,,0.01,0.0,WeatherDisplay:10.37,2013-02-16 12:18:00,
2013-02-16 07:23:00,30.7,29.4,29.94,WNW,299,0.0,0.0,95,0.00,OVC,,0.01,5.0,WeatherDisplay:10.37,2013-02-16 12:23:00,
2013-02-16 07:28:00,30.6,29.3,29.94,NNW,336,0.0,0.0,95,0.00,OVC,,0.01,9.0,WeatherDisplay:10.37,2013-02-16 12:28:00,
2013-02-16 07:33:00,30.4,29.1,29.94,NW,317,0.0,0.0,95,0.00,OVC,,0.01,9.0,WeatherDisplay:10.37,2013-02-16 12:33:00,
2013-02-16 07:38:00,30.4,29.1,29.94,NW,316,0.0,0.0,95,0.00,OVC,,0.01,11.0,WeatherDisplay:10.37,2013-02-16 12:38:00,
2013-02-16 07:43:00,30.5,29.2,29.94,West,275,0.0,0.0,95,0.00,OVC,,0.01,11.0,WeatherDisplay:10.37,2013-02-16 12:43:00,
2013-02-16 07:48:00,30.6,29.3,29.95,West,275,0.0,0.0,95,0.00,OVC,,0.01,12.0,WeatherDisplay:10.37,2013-02-16 12:48:00,
2013-02-16 07:53:00,30.6,29.3,29.94,West,275,0.0,0.0,95,0.00,OVC,,0.01,14.0,WeatherDisplay:10.37,2013-02-16 12:53:00,
2013-02-16 07:58:00,30.6,29.3,29.94,WNW,297,0.0,0.0,95,0.00,OVC,,0.01,19.0,WeatherDisplay:10.37,2013-02-16 12:58:00,
2013-02-16 08:03:00,30.6,29.6,29.94,NW,317,0.0,0.0,96,0.00,OVC,,0.01,23.0,WeatherDisplay:10.37,2013-02-16 13:03:00,
2013-02-16 08:08:00,30.7,29.7,29.94,NW,317,0.0,0.0,96,0.00,OVC,,0.01,26.0,WeatherDisplay:10.37,2013-02-16 13:08:00,
2013-02-16 08:13:00,30.7,29.7,29.94,NW,317,0.0,0.0,96,0.00,OVC,,0.01,33.0,WeatherDisplay:10.37,2013-02-16 13:13:00,
2013-02-16 08:18:00,30.8,29.8,29.94,NW,321,0.0,0.0,96,0.00,OVC,,0.01,39.0,WeatherDisplay:10.37,2013-02-16 13:18:00,
2013-02-16 08:23:00,30.8,29.8,29.94,NW,323,0.0,0.0,96,0.00,OVC,,0.01,44.0,WeatherDisplay:10.37,2013-02-16 13:23:00,
2013-02-16 08:28:00,30.8,29.8,29.94,NW,325,0.0,0.0,96,0.00,OVC,,0.01,49.0,WeatherDisplay:10.37,2013-02-16 13:28:00,
2013-02-16 08:33:00,30.8,29.5,29.94,NW,325,0.0,0.0,95,0.00,OVC,,0.01,56.0,WeatherDisplay:10.37,2013-02-16 13:33:00,
2013-02-16 08:38:00,30.9,29.6,29.94,NW,323,0.0,0.0,95,0.00,OVC,,0.01,58.0,WeatherDisplay:10.37,2013-02-16 13:38:00,
2013-02-16 08:43:00,31.0,29.7,29.94,NNW,329,0.0,0.0,95,0.00,OVC,,0.01,62.0,WeatherDisplay:10.37,2013-02-16 13:43:00,
2013-02-16 08:48:00,31.0,29.7,29.94,NNW,330,0.0,0.0,95,0.00,OVC,,0.01,70.0,WeatherDisplay:10.37,2013-02-16 13:48:00,
2013-02-16 08:53:00,31.1,29.8,29.94,NNW,337,0.0,0.0,95,0.00,OVC,,0.01,76.0,WeatherDisplay:10.37,2013-02-16 13:53:00,
2013-02-16 08:58:00,31.1,29.8,29.93,NNW,340,0.0,0.0,95,0.00,OVC,,0.01,88.0,WeatherDisplay:10.37,2013-02-16 13:58:00,
2013-02-16 09:04:00,31.2,29.9,29.93,NNW,342,0.0,0.0,95,0.00,OVC,,0.01,118.0,WeatherDisplay:10.37,2013-02-16 14:04:00,
2013-02-16 09:09:00,31.2,30.2,29.92,North,355,0.0,0.0,96,0.00,OVC,,0.01,127.0,WeatherDisplay:10.37,2013-02-16 14:09:00,
2013-02-16 09:14:00,31.2,30.2,29.93,NNW,342,0.0,0.0,96,0.00,OVC,,0.01,134.0,WeatherDisplay:10.37,2013-02-16 14:14:00,
2013-02-16 09:19:00,31.2,30.2,29.92,NNW,346,0.0,0.0,96,0.00,OVC,,0.01,167.0,WeatherDisplay:10.37,2013-02-16 14:19:00,
2013-02-16 09:24:00,31.4,30.1,29.93,NNW,344,0.0,0.0,95,0.00,OVC,,0.01,241.0,WeatherDisplay:10.37,2013-02-16 14:24:00,
2013-02-16 09:29:00,31.6,30.3,29.93,NNW,333,0.0,0.0,95,0.00,OVC,,0.01,165.0,WeatherDisplay:10.37,2013-02-16 14:29:00,
2013-02-16 09:34:00,31.6,30.3,29.93,North,355,0.0,0.0,95,0.00,OVC,,0.01,137.0,WeatherDisplay:10.37,2013-02-16 14:34:00,
2013-02-16 09:39:00,31.7,30.4,29.93,North,355,0.0,0.0,95,0.00,OVC,,0.01,127.0,WeatherDisplay:10.37,2013-02-16 14:39:00,
2013-02-16 09:44:00,31.8,30.5,29.93,NNW,338,0.0,0.0,95,0.00,OVC,,0.01,148.0,WeatherDisplay:10.37,2013-02-16 14:44:00,
2013-02-16 09:49:00,31.8,30.5,29.93,NNW,340,0.0,0.0,95,0.00,OVC,,0.01,171.0,WeatherDisplay:10.37,2013-02-16 14:49:00,
2013-02-16 09:54:00,31.8,30.5,29.93,NNE,13,0.0,0.0,95,0.00,OVC,,0.01,232.0,WeatherDisplay:10.37,2013-02-16 14:54:00,
2013-02-16 09:59:00,31.9,30.6,29.93,NNW,346,0.0,0.0,95,0.00,OVC,,0.01,127.0,WeatherDisplay:10.37,2013-02-16 14:59:00,
2013-02-16 10:04:00,32.0,30.5,29.93,NNW,344,0.0,0.0,94,0.00,OVC,,0.01,114.0,WeatherDisplay:10.37,2013-02-16 15:04:00,
2013-02-16 10:09:00,32.0,30.5,29.93,North,360,0.0,0.0,94,0.00,OVC,,0.01,121.0,WeatherDisplay:10.37,2013-02-16 15:09:00,
2013-02-16 10:14:00,32.2,30.4,29.93,NNW,341,0.0,0.0,93,0.00,OVC,,0.01,176.0,WeatherDisplay:10.37,2013-02-16 15:14:00,
2013-02-16 10:19:00,32.4,30.6,29.93,North,355,0.0,0.0,93,0.00,OVC,,0.01,169.0,WeatherDisplay:10.37,2013-02-16 15:19:00,
2013-02-16 10:24:00,32.6,30.5,29.92,NNE,26,0.0,0.0,92,0.00,OVC,,0.01,174.0,WeatherDisplay:10.37,2013-02-16 15:24:00,
2013-02-16 10:29:00,32.6,30.5,29.92,North,355,0.0,0.0,92,0.00,OVC,,0.01,146.0,WeatherDisplay:10.37,2013-02-16 15:29:00,
2013-02-16 10:34:00,32.8,30.5,29.92,North,349,0.0,0.0,91,0.00,OVC,,0.01,202.0,WeatherDisplay:10.37,2013-02-16 15:34:00,
2013-02-16 10:39:00,32.9,30.3,29.92,North,360,0.0,0.0,90,0.00,OVC,,0.01,183.0,WeatherDisplay:10.37,2013-02-16 15:39:00,
2013-02-16 10:44:00,33.0,30.1,29.92,NNW,346,0.0,0.0,89,0.00,OVC,,0.01,167.0,WeatherDisplay:10.37,2013-02-16 15:44:00,
2013-02-16 10:49:00,33.1,30.2,29.92,North,5,0.0,0.0,89,0.00,OVC,,0.01,171.0,WeatherDisplay:10.37,2013-02-16 15:49:00,
2013-02-16 10:54:00,33.2,30.0,29.92,NNW,337,0.0,0.0,88,0.00,OVC,,0.01,251.0,WeatherDisplay:10.37,2013-02-16 15:54:00,
2013-02-16 10:59:00,33.5,30.3,29.92,NNW,336,6.0,6.0,88,0.00,OVC,,0.01,251.0,WeatherDisplay:10.37,2013-02-16 15:59:00,
2013-02-16 11:04:00,33.5,30.0,29.92,NW,318,5.0,5.0,87,0.00,OVC,,0.01,200.0,WeatherDisplay:10.37,2013-02-16 16:04:00,
2013-02-16 11:09:00,33.4,29.7,29.92,NNW,327,3.5,3.5,86,0.00,OVC,,0.01,179.0,WeatherDisplay:10.37,2013-02-16 16:09:00,
2013-02-16 11:14:00,33.6,29.9,29.92,NNW,339,2.3,2.3,86,0.00,OVC,,0.01,311.0,WeatherDisplay:10.37,2013-02-16 16:14:00,
2013-02-16 11:19:00,33.5,29.2,29.92,North,360,3.5,3.5,84,0.00,OVC,,0.01,294.0,WeatherDisplay:10.37,2013-02-16 16:19:00,
2013-02-16 11:24:00,33.7,29.4,29.92,North,350,3.5,3.5,84,0.00,OVC,,0.01,327.0,WeatherDisplay:10.37,2013-02-16 16:24:00,
2013-02-16 11:29:00,33.7,29.1,29.92,North,355,2.3,2.3,83,0.00,OVC,,0.01,288.0,WeatherDisplay:10.37,2013-02-16 16:29:00,
2013-02-16 11:34:00,33.9,29.3,29.92,NNW,338,4.6,4.6,83,0.00,OVC,,0.01,292.0,WeatherDisplay:10.37,2013-02-16 16:34:00,
2013-02-16 11:39:00,34.3,29.7,29.91,NNE,15,2.3,2.3,83,0.00,OVC,,0.01,294.0,WeatherDisplay:10.37,2013-02-16 16:39:00,
2013-02-16 11:44:00,34.2,29.3,29.92,NNW,342,2.3,2.3,82,0.00,OVC,,0.01,232.0,WeatherDisplay:10.37,2013-02-16 16:44:00,
2013-02-16 11:49:00,34.4,29.8,29.91,North,355,4.6,4.6,83,0.00,OVC,,0.01,216.0,WeatherDisplay:10.37,2013-02-16 16:49:00,
2013-02-16 11:54:00,34.4,29.5,29.91,NNW,328,6.9,6.9,82,0.00,OVC,,0.01,197.0,WeatherDisplay:10.37,2013-02-16 16:54:00,
2013-02-16 11:59:00,34.4,29.5,29.91,North,355,3.5,3.5,82,0.00,OVC,,0.01,190.0,WeatherDisplay:10.37,2013-02-16 16:59:00,
2013-02-16 12:04:00,34.4,29.5,29.91,NW,323,3.5,3.5,82,0.00,BKN,,0.01,197.0,WeatherDisplay:10.37,2013-02-16 17:04:00,
2013-02-16 12:09:00,34.4,29.2,29.90,North,360,2.3,2.3,81,0.00,BKN,,0.01,181.0,WeatherDisplay:10.37,2013-02-16 17:09:00,
2013-02-16 12:14:00,34.4,29.2,29.89,North,5,3.5,3.5,81,0.00,BKN,,0.01,185.0,WeatherDisplay:10.37,2013-02-16 17:14:00,
2013-02-16 12:19:00,34.4,29.2,29.89,NNW,347,3.5,3.5,81,0.00,BKN,,0.01,190.0,WeatherDisplay:10.37,2013-02-16 17:19:00,
2013-02-16 12:24:00,34.4,29.2,29.89,NNW,338,4.6,4.6,81,0.00,BKN,,0.01,192.0,WeatherDisplay:10.37,2013-02-16 17:24:00,
2013-02-16 12:29:00,34.5,29.6,29.89,NW,321,3.5,3.5,82,0.00,BKN,,0.01,163.0,WeatherDisplay:10.37,2013-02-16 17:29:00,
2013-02-16 12:34:00,34.4,29.5,29.89,NW,323,3.5,3.5,82,0.00,BKN,,0.01,100.0,WeatherDisplay:10.37,2013-02-16 17:34:00,
2013-02-16 12:39:00,34.4,29.5,29.89,NNW,338,1.1,1.1,82,0.00,BKN,,0.01,88.0,WeatherDisplay:10.37,2013-02-16 17:39:00,
2013-02-16 12:44:00,34.4,29.5,29.88,NNW,336,2.3,2.3,82,0.00,BKN,,0.01,93.0,WeatherDisplay:10.37,2013-02-16 17:44:00,
2013-02-16 12:49:00,34.3,29.4,29.88,North,350,3.5,3.5,82,0.00,BKN,,0.01,105.0,WeatherDisplay:10.37,2013-02-16 17:49:00,
2013-02-16 12:54:00,34.4,29.5,29.87,NNW,348,3.5,3.5,82,0.00,BKN,,0.01,74.0,WeatherDisplay:10.37,2013-02-16 17:54:00,
2013-02-16 12:59:00,34.2,29.3,29.87,NNW,338,4.6,4.6,82,0.00,OVC,,0.01,70.0,WeatherDisplay:10.37,2013-02-16 17:59:00,
2013-02-16 13:04:00,34.1,29.2,29.87,NNW,331,3.5,3.5,82,0.00,OVC,,0.01,79.0,WeatherDisplay:10.37,2013-02-16 18:04:00,
2013-02-16 13:09:00,34.2,29.3,29.87,North,355,5.8,5.8,82,0.00,OVC,,0.01,104.0,WeatherDisplay:10.37,2013-02-16 18:09:00,
2013-02-16 13:14:00,34.2,29.3,29.87,NNW,336,4.6,4.6,82,0.00,OVC,,0.01,97.0,WeatherDisplay:10.37,2013-02-16 18:14:00,
2013-02-16 13:19:00,34.1,29.2,29.86,NNW,340,3.5,3.5,82,0.00,OVC,,0.01,95.0,WeatherDisplay:10.37,2013-02-16 18:19:00,
2013-02-16 13:24:00,34.1,29.2,29.86,NNW,342,3.5,3.5,82,0.00,OVC,,0.01,105.0,WeatherDisplay:10.37,2013-02-16 18:24:00,
2013-02-16 13:29:00,34.1,29.2,29.86,NNW,330,1.1,1.1,82,0.00,OVC,,0.01,69.0,WeatherDisplay:10.37,2013-02-16 18:29:00,
2013-02-16 13:34:00,34.1,29.2,29.86,NW,325,9.2,9.2,82,0.00,OVC,,0.01,116.0,WeatherDisplay:10.37,2013-02-16 18:34:00,
2013-02-16 13:39:00,34.2,29.3,29.85,NNW,331,4.6,4.6,82,0.00,OVC,,0.01,155.0,WeatherDisplay:10.37,2013-02-16 18:39:00,
2013-02-16 13:44:00,34.4,29.2,29.85,NW,322,9.2,9.2,81,0.00,OVC,,0.01,174.0,WeatherDisplay:10.37,2013-02-16 18:44:00,
2013-02-16 13:49:00,34.3,29.1,29.85,NNW,332,10.4,10.4,81,0.00,OVC,,0.01,167.0,WeatherDisplay:10.37,2013-02-16 18:49:00,
2013-02-16 13:54:00,34.1,28.3,29.86,NW,311,9.2,9.2,79,0.00,OVC,,0.01,149.0,WeatherDisplay:10.37,2013-02-16 18:54:00,
2013-02-16 13:59:00,34.3,28.5,29.86,NW,304,7.0,7.0,79,0.00,OVC,,0.01,151.0,WeatherDisplay:10.37,2013-02-16 18:59:00,
2013-02-16 14:04:00,34.4,28.6,29.86,WNW,298,8.1,8.1,79,0.00,OVC,,0.01,155.0,WeatherDisplay:10.37,2013-02-16 19:04:00,
2013-02-16 14:09:00,34.4,28.2,29.86,NW,319,9.2,9.2,78,0.00,OVC,,0.01,151.0,WeatherDisplay:10.37,2013-02-16 19:09:00,
2013-02-16 14:14:00,34.2,28.1,29.86,NW,322,9.2,9.2,78,0.00,OVC,,0.01,149.0,WeatherDisplay:10.37,2013-02-16 19:14:00,
2013-02-16 14:19:00,34.3,28.2,29.86,NW,317,5.8,5.8,78,0.00,OVC,,0.01,167.0,WeatherDisplay:10.37,2013-02-16 19:19:00,
2013-02-16 14:24:00,34.4,28.2,29.87,WNW,302,9.2,9.2,78,0.00,OVC,,0.01,114.0,WeatherDisplay:10.37,2013-02-16 19:24:00,
2013-02-16 14:29:00,34.2,28.1,29.87,WNW,299,9.2,9.2,78,0.00,OVC,,0.01,97.0,WeatherDisplay:10.37,2013-02-16 19:29:00,
2013-02-16 14:34:00,34.1,28.0,29.86,NW,311,9.2,9.2,78,0.00,OVC,,0.01,113.0,WeatherDisplay:10.37,2013-02-16 19:34:00,
2013-02-16 14:39:00,34.1,28.3,29.86,NW,312,8.1,8.1,79,0.00,OVC,,0.01,79.0,WeatherDisplay:10.37,2013-02-16 19:39:00,
2013-02-16 14:44:00,34.0,28.2,29.86,NNW,329,6.9,6.9,79,0.00,OVC,,0.01,79.0,WeatherDisplay:10.37,2013-02-16 19:44:00,
2013-02-16 14:49:00,33.8,28.0,29.86,NW,312,8.1,8.1,79,0.00,OVC,,0.01,67.0,WeatherDisplay:10.37,2013-02-16 19:49:00,
2013-02-16 14:54:00,33.7,27.9,29.86,WNW,303,8.1,8.1,79,0.00,OVC,,0.01,65.0,WeatherDisplay:10.37,2013-02-16 19:54:00,
2013-02-16 14:59:00,33.5,27.4,29.86,NNW,332,7.0,7.0,78,0.00,OVC,,0.01,69.0,WeatherDisplay:10.37,2013-02-16 19:59:00,
2013-02-16 15:04:00,33.5,27.4,29.85,NW,326,9.2,9.2,78,0.00,OVC,,0.01,74.0,WeatherDisplay:10.37,2013-02-16 20:04:00,
2013-02-16 15:09:00,33.4,27.3,29.85,NNW,328,8.1,8.1,78,0.00,OVC,,0.01,84.0,WeatherDisplay:10.37,2013-02-16 20:09:00,
2013-02-16 15:14:00,33.4,27.3,29.85,NW,323,11.0,11.0,78,0.00,OVC,,0.01,95.0,WeatherDisplay:10.37,2013-02-16 20:14:00,
2013-02-16 15:19:00,33.3,26.9,29.85,NNW,337,7.0,7.0,77,0.00,OVC,,0.01,84.0,WeatherDisplay:10.37,2013-02-16 20:19:00,
2013-02-16 15:24:00,33.3,26.5,29.85,NNW,328,8.1,8.1,76,0.00,OVC,,0.01,79.0,WeatherDisplay:10.37,2013-02-16 20:24:00,
2013-02-16 15:29:00,33.3,26.9,29.85,NNW,337,9.2,9.2,77,0.00,OVC,,0.01,77.0,WeatherDisplay:10.37,2013-02-16 20:29:00,
2013-02-16 15:34:00,33.2,26.1,29.85,NNW,331,11.5,11.5,75,0.00,OVC,,0.01,86.0,WeatherDisplay:10.37,2013-02-16 20:34:00,
2013-02-16 15:39:00,33.2,26.1,29.85,NW,326,10.4,10.4,75,0.00,OVC,,0.01,88.0,WeatherDisplay:10.37,2013-02-16 20:39:00,
2013-02-16 15:44:00,33.1,26.0,29.85,NW,324,8.1,8.1,75,0.00,OVC,,0.01,98.0,WeatherDisplay:10.37,2013-02-16 20:44:00,
2013-02-16 15:49:00,33.1,25.7,29.85,NW,312,10.4,10.4,74,0.00,OVC,,0.01,65.0,WeatherDisplay:10.37,2013-02-16 20:49:00,
2013-02-16 15:54:00,32.9,25.5,29.85,North,5,8.1,8.1,74,0.00,OVC,,0.01,60.0,WeatherDisplay:10.37,2013-02-16 20:54:00,
2013-02-16 15:59:00,32.9,25.5,29.85,NW,318,6.0,6.0,74,0.00,BKN,,0.01,63.0,WeatherDisplay:10.37,2013-02-16 20:59:00,
2013-02-16 16:04:00,32.9,25.5,29.85,NW,315,7.0,7.0,74,0.00,BKN,,0.01,70.0,WeatherDisplay:10.37,2013-02-16 21:04:00,
2013-02-16 16:09:00,32.9,25.5,29.85,NNW,332,6.9,6.9,74,0.00,BKN,,0.01,65.0,WeatherDisplay:10.37,2013-02-16 21:09:00,
2013-02-16 16:14:00,32.8,25.4,29.85,NNW,330,9.2,9.2,74,0.00,BKN,,0.01,58.0,WeatherDisplay:10.37,2013-02-16 21:14:00,
2013-02-16 16:19:00,32.8,25.1,29.85,NNW,333,9.2,9.2,73,0.00,BKN,,0.01,49.0,WeatherDisplay:10.37,2013-02-16 21:19:00,
2013-02-16 16:24:00,32.7,25.0,29.85,NNW,345,9.2,9.2,73,0.00,BKN,,0.01,53.0,WeatherDisplay:10.37,2013-02-16 21:24:00,
2013-02-16 16:29:00,32.7,25.3,29.85,NW,319,5.8,5.8,74,0.00,BKN,,0.01,46.0,WeatherDisplay:10.37,2013-02-16 21:29:00,
2013-02-16 16:34:00,32.7,25.3,29.85,NW,325,8.1,8.1,74,0.00,BKN,,0.01,54.0,WeatherDisplay:10.37,2013-02-16 21:34:00,
2013-02-16 16:39:00,32.7,25.3,29.84,NNW,333,5.8,5.8,74,0.00,BKN,,0.01,58.0,WeatherDisplay:10.37,2013-02-16 21:39:00,
2013-02-16 16:44:00,32.7,25.3,29.84,NNW,338,7.0,7.0,74,0.00,BKN,,0.01,47.0,WeatherDisplay:10.37,2013-02-16 21:44:00,
2013-02-16 16:49:00,32.6,24.9,29.85,NW,317,10.0,10.0,73,0.00,BKN,,0.01,19.0,WeatherDisplay:10.37,2013-02-16 21:49:00,
2013-02-16 16:54:00,32.5,24.8,29.85,NNW,327,8.1,8.1,73,0.00,BKN,,0.01,28.0,WeatherDisplay:10.37,2013-02-16 21:54:00,
2013-02-16 16:59:00,32.5,24.8,29.85,NNW,330,6.9,6.9,73,0.00,BKN,,0.01,23.0,WeatherDisplay:10.37,2013-02-16 21:59:00,
2013-02-16 17:04:00,32.4,24.7,29.86,NW,306,5.8,5.8,73,0.00,BKN,,0.01,16.0,WeatherDisplay:10.37,2013-02-16 22:04:00,
2013-02-16 17:09:00,32.4,24.7,29.86,NW,317,6.9,6.9,73,0.00,BKN,,0.01,14.0,WeatherDisplay:10.37,2013-02-16 22:09:00,
2013-02-16 17:14:00,32.4,24.7,29.86,NW,317,5.8,5.8,73,0.00,BKN,,0.01,11.0,WeatherDisplay:10.37,2013-02-16 22:14:00,
2013-02-16 17:19:00,32.3,24.6,29.85,NW,312,8.1,8.1,73,0.00,BKN,,0.01,9.0,WeatherDisplay:10.37,2013-02-16 22:19:00,
2013-02-16 17:24:00,32.3,24.6,29.85,WNW,300,6.9,6.9,73,0.00,BKN,,0.01,5.0,WeatherDisplay:10.37,2013-02-16 22:24:00,
2013-02-16 17:29:00,32.2,24.2,29.85,NW,315,6.9,6.9,72,0.00,BKN,,0.01,0.0,WeatherDisplay:10.37,2013-02-16 22:29:00,
2013-02-16 17:34:00,32.2,24.2,29.85,NW,310,8.1,8.1,72,0.00,BKN,,0.01,0.0,WeatherDisplay:10.37,2013-02-16 22:34:00,
2013-02-16 17:39:00,32.1,23.8,29.85,NW,318,10.4,10.4,71,0.00,BKN,,0.01,0.0,WeatherDisplay:10.37,2013-02-16 22:39:00,
2013-02-16 17:44:00,32.0,24.0,29.85,NW,318,8.1,8.1,72,0.00,BKN,,0.01,0.0,WeatherDisplay:10.37,2013-02-16 22:44:00,
2013-02-16 17:49:00,32.0,24.0,29.85,WNW,302,6.9,6.9,72,0.00,BKN,,0.01,0.0,WeatherDisplay:10.37,2013-02-16 22:49:00,
2013-02-16 17:54:00,31.9,23.6,29.85,WNW,302,7.0,7.0,71,0.00,BKN,,0.01,0.0,WeatherDisplay:10.37,2013-02-16 22:54:00,
2013-02-16 17:59:00,31.9,23.6,29.85,NW,318,6.9,6.9,71,0.00,OVC,,0.01,0.0,WeatherDisplay:10.37,2013-02-16 22:59:00,
2013-02-16 18:04:00,31.8,23.1,29.85,NW,312,8.1,8.1,70,0.00,OVC,,0.01,0.0,WeatherDisplay:10.37,2013-02-16 23:04:00,
2013-02-16 18:09:00,31.8,23.1,29.85,NW,323,6.9,6.9,70,0.00,OVC,,0.01,0.0,WeatherDisplay:10.37,2013-02-16 23:09:00,
2013-02-16 18:14:00,31.7,23.0,29.85,NW,313,6.9,6.9,70,0.00,OVC,,0.01,0.0,WeatherDisplay:10.37,2013-02-16 23:14:00,
2013-02-16 18:19:00,31.7,23.0,29.85,NW,309,6.9,6.9,70,0.00,OVC,,0.01,0.0,WeatherDisplay:10.37,2013-02-16 23:19:00,
2013-02-16 18:24:00,31.7,23.0,29.85,NW,325,5.8,5.8,70,0.00,OVC,,0.01,0.0,WeatherDisplay:10.37,2013-02-16 23:24:00,
2013-02-16 18:29:00,31.6,23.3,29.84,NW,304,8.1,8.1,71,0.00,OVC,,0.01,0.0,WeatherDisplay:10.37,2013-02-16 23:29:00,
2013-02-16 18:34:00,31.6,22.9,29.84,WNW,300,8.0,8.0,70,0.00,OVC,,0.01,0.0,WeatherDisplay:10.37,2013-02-16 23:34:00,
2013-02-16 18:39:00,31.6,22.9,29.84,NW,306,6.9,6.9,70,0.00,OVC,,0.01,0.0,WeatherDisplay:10.37,2013-02-16 23:39:00,
2013-02-16 18:44:00,31.6,22.9,29.84,NW,311,9.0,9.0,70,0.00,OVC,,0.01,0.0,WeatherDisplay:10.37,2013-02-16 23:44:00,
2013-02-16 18:49:00,31.6,22.9,29.85,NW,306,9.2,9.2,70,0.00,OVC,,0.01,0.0,WeatherDisplay:10.37,2013-02-16 23:49:00,
2013-02-16 18:54:00,31.5,22.8,29.84,NW,320,9.2,9.2,70,0.00,OVC,,0.01,0.0,WeatherDisplay:10.37,2013-02-16 23:54:00,
2013-02-16 18:59:00,31.5,22.5,29.83,NW,305,9.2,9.2,69,0.00,BKN,,0.01,0.0,WeatherDisplay:10.37,2013-02-16 23:59:00,
2013-02-16 19:04:00,31.5,22.5,29.83,NW,306,7.0,7.0,69,0.00,BKN,,0.01,0.0,WeatherDisplay:10.37,2013-02-17 00:04:00,
2013-02-16 19:09:00,31.4,22.4,29.83,NW,311,9.0,9.0,69,0.00,BKN,,0.01,0.0,WeatherDisplay:10.37,2013-02-17 00:09:00,
2013-02-16 19:14:00,31.4,22.1,29.83,NW,311,8.0,8.0,68,0.00,BKN,,0.01,0.0,WeatherDisplay:10.37,2013-02-17 00:14:00,
2013-02-16 19:19:00,31.5,21.8,29.83,WNW,299,8.1,8.1,67,0.00,BKN,,0.01,0.0,WeatherDisplay:10.37,2013-02-17 00:19:00,
2013-02-16 19:24:00,31.5,21.8,29.83,NW,309,9.2,9.2,67,0.00,BKN,,0.01,0.0,WeatherDisplay:10.37,2013-02-17 00:24:00,
2013-02-16 19:29:00,31.4,21.7,29.83,NW,309,9.2,9.2,67,0.00,BKN,,0.01,0.0,WeatherDisplay:10.37,2013-02-17 00:29:00,
2013-02-16 19:34:00,31.4,21.7,29.83,NW,308,9.2,9.2,67,0.00,BKN,,0.01,0.0,WeatherDisplay:10.37,2013-02-17 00:34:00,
2013-02-16 19:39:00,31.4,21.7,29.82,NW,306,6.9,6.9,67,0.00,BKN,,0.01,0.0,WeatherDisplay:10.37,2013-02-17 00:39:00,
2013-02-16 19:44:00,31.4,21.7,29.82,NNW,330,6.9,6.9,67,0.00,BKN,,0.01,0.0,WeatherDisplay:10.37,2013-02-17 00:44:00,
2013-02-16 19:49:00,31.4,21.3,29.82,NW,323,6.9,6.9,66,0.00,BKN,,0.01,0.0,WeatherDisplay:10.37,2013-02-17 00:49:00,
2013-02-16 19:54:00,31.4,21.7,29.82,NW,325,9.2,9.2,67,0.00,BKN,,0.01,0.0,WeatherDisplay:10.37,2013-02-17 00:54:00,
2013-02-16 19:59:00,31.4,21.3,29.82,NW,319,9.0,9.0,66,0.00,BKN,,0.01,0.0,WeatherDisplay:10.37,2013-02-17 00:59:00,
2013-02-16 20:04:00,31.4,21.3,29.82,NW,325,9.2,9.2,66,0.00,BKN,,0.01,0.0,WeatherDisplay:10.37,2013-02-17 01:04:00,
2013-02-16 20:09:00,31.3,21.6,29.82,NNW,344,11.5,11.5,67,0.00,BKN,,0.01,0.0,WeatherDisplay:10.37,2013-02-17 01:09:00,
2013-02-16 20:14:00,31.3,21.3,29.83,NW,324,7.0,7.0,66,0.00,BKN,,0.01,0.0,WeatherDisplay:10.37,2013-02-17 01:14:00,
2013-02-16 20:19:00,31.3,21.3,29.83,NW,322,11.5,11.5,66,0.00,BKN,,0.01,0.0,WeatherDisplay:10.37,2013-02-17 01:19:00,
2013-02-16 20:24:00,31.2,21.5,29.83,NNW,333,9.2,9.2,67,0.00,BKN,,0.01,0.0,WeatherDisplay:10.37,2013-02-17 01:24:00,
2013-02-16 20:29:00,31.2,21.5,29.82,WNW,302,7.0,7.0,67,0.00,BKN,,0.01,0.0,WeatherDisplay:10.37,2013-02-17 01:29:00,
2013-02-16 20:34:00,31.1,21.8,29.82,NW,320,7.0,7.0,68,0.00,BKN,,0.01,0.0,WeatherDisplay:10.37,2013-02-17 01:34:00,
2013-02-16 20:39:00,31.1,21.8,29.82,NNW,348,5.0,5.0,68,0.00,BKN,,0.01,0.0,WeatherDisplay:10.37,2013-02-17 01:39:00,
2013-02-16 20:44:00,31.0,22.0,29.83,NNW,334,4.6,4.6,69,0.00,BKN,,0.01,0.0,WeatherDisplay:10.37,2013-02-17 01:44:00,
2013-02-16 20:49:00,31.0,21.7,29.83,NNW,337,3.5,3.5,68,0.00,BKN,,0.01,0.0,WeatherDisplay:10.37,2013-02-17 01:49:00,
2013-02-16 20:54:00,31.0,21.7,29.83,NNW,336,2.3,2.3,68,0.00,BKN,,0.01,0.0,WeatherDisplay:10.37,2013-02-17 01:54:00,
2013-02-16 20:59:00,31.0,21.7,29.83,NNW,340,3.5,3.5,68,0.00,CLR,,0.01,0.0,WeatherDisplay:10.37,2013-02-17 01:59:00,
2013-02-16 21:04:00,31.0,20.2,29.82,North,355,2.3,2.3,64,0.00,CLR,,0.01,0.0,WeatherDisplay:10.37,2013-02-17 02:04:00,
2013-02-16 21:09:00,31.0,20.2,29.82,NNW,346,3.5,3.5,64,0.00,CLR,,0.01,0.0,WeatherDisplay:10.37,2013-02-17 02:09:00,
2013-02-16 21:14:00,31.0,19.9,29.82,NNW,347,3.5,3.5,63,0.00,CLR,,0.01,0.0,WeatherDisplay:10.37,2013-02-17 02:14:00,
2013-02-16 21:19:00,30.9,19.8,29.82,NNE,15,2.3,2.3,63,0.00,CLR,,0.01,0.0,WeatherDisplay:10.37,2013-02-17 02:19:00,
2013-02-16 21:24:00,30.8,18.9,29.82,NNW,337,3.5,3.5,61,0.00,CLR,,0.01,0.0,WeatherDisplay:10.37,2013-02-17 02:24:00,
2013-02-16 21:29:00,30.7,19.2,29.82,NNW,348,2.3,2.3,62,0.00,CLR,,0.01,0.0,WeatherDisplay:10.37,2013-02-17 02:29:00,
2013-02-16 21:34:00,30.7,19.2,29.82,North,355,2.3,2.3,62,0.00,CLR,,0.01,0.0,WeatherDisplay:10.37,2013-02-17 02:34:00,
2013-02-16 21:39:00,30.6,19.1,29.82,NNW,348,2.3,2.3,62,0.00,CLR,,0.01,0.0,WeatherDisplay:10.37,2013-02-17 02:39:00,
2013-02-16 21:44:00,30.5,19.0,29.82,North,360,2.3,2.3,62,0.00,CLR,,0.01,0.0,WeatherDisplay:10.37,2013-02-17 02:44:00,
2013-02-16 21:49:00,30.5,18.6,29.82,North,360,2.3,2.3,61,0.00,CLR,,0.01,0.0,WeatherDisplay:10.37,2013-02-17 02:49:00,
2013-02-16 21:54:00,30.5,18.6,29.82,North,9,2.3,2.3,61,0.00,CLR,,0.01,0.0,WeatherDisplay:10.37,2013-02-17 02:54:00,
2013-02-16 21:59:00,30.4,18.5,29.81,North,355,3.5,3.5,61,0.00,FEW,,0.01,0.0,WeatherDisplay:10.37,2013-02-17 02:59:00,
2013-02-16 22:04:00,30.4,18.5,29.81,NNW,331,3.0,3.0,61,0.00,FEW,,0.01,0.0,WeatherDisplay:10.37,2013-02-17 03:04:00,
2013-02-16 22:09:00,30.3,18.5,29.81,NNW,331,2.3,2.3,61,0.00,FEW,,0.01,0.0,WeatherDisplay:10.37,2013-02-17 03:09:00,
2013-02-16 22:14:00,30.3,18.5,29.81,NNW,339,3.5,3.5,61,0.00,FEW,,0.01,0.0,WeatherDisplay:10.37,2013-02-17 03:14:00,
2013-02-16 22:19:00,30.3,18.5,29.80,NW,325,9.2,9.2,61,0.00,FEW,,0.01,0.0,WeatherDisplay:10.37,2013-02-17 03:19:00,
2013-02-16 22:24:00,30.2,18.0,29.81,NNW,343,6.9,6.9,60,0.00,FEW,,0.01,0.0,WeatherDisplay:10.37,2013-02-17 03:24:00,
2013-02-16 22:29:00,30.2,18.0,29.80,NW,326,9.2,9.2,60,0.00,FEW,,0.01,0.0,WeatherDisplay:10.37,2013-02-17 03:29:00,
2013-02-16 22:34:00,30.1,17.9,29.80,NNW,332,4.0,4.0,60,0.00,FEW,,0.01,0.0,WeatherDisplay:10.37,2013-02-17 03:34:00,
2013-02-16 22:39:00,30.1,17.9,29.80,NNW,347,5.8,5.8,60,0.00,FEW,,0.01,0.0,WeatherDisplay:10.37,2013-02-17 03:39:00,
2013-02-16 22:44:00,30.1,17.9,29.80,NNW,336,3.5,3.5,60,0.00,FEW,,0.01,0.0,WeatherDisplay:10.37,2013-02-17 03:44:00,
2013-02-16 22:49:00,30.1,17.9,29.80,NNW,327,9.0,9.0,60,0.00,FEW,,0.01,0.0,WeatherDisplay:10.37,2013-02-17 03:49:00,
2013-02-16 22:54:00,29.9,17.7,29.80,NNW,340,7.0,7.0,60,0.00,FEW,,0.01,0.0,WeatherDisplay:10.37,2013-02-17 03:54:00,
2013-02-16 22:59:00,29.9,17.3,29.80,NNW,329,5.8,5.8,59,0.00,BKN,,0.01,0.0,WeatherDisplay:10.37,2013-02-17 03:59:00,
2013-02-16 23:04:00,29.9,17.7,29.80,NW,323,7.0,7.0,60,0.00,BKN,,0.01,0.0,WeatherDisplay:10.37,2013-02-17 04:04:00,
2013-02-16 23:09:00,29.7,17.5,29.80,NW,320,4.6,4.6,60,0.00,BKN,,0.01,0.0,WeatherDisplay:10.37,2013-02-17 04:09:00,
2013-02-16 23:14:00,29.7,17.9,29.79,NNW,329,3.5,3.5,61,0.00,BKN,,0.01,0.0,WeatherDisplay:10.37,2013-02-17 04:14:00,
2013-02-16 23:19:00,29.6,18.2,29.79,NNW,327,2.3,2.3,62,0.00,BKN,,0.01,0.0,WeatherDisplay:10.37,2013-02-17 04:19:00,
2013-02-16 23:24:00,29.5,18.1,29.79,NNW,342,3.5,3.5,62,0.00,BKN,,0.01,0.0,WeatherDisplay:10.37,2013-02-17 04:24:00,
2013-02-16 23:29:00,29.4,18.0,29.79,NNW,336,3.5,3.5,62,0.00,BKN,,0.01,0.0,WeatherDisplay:10.37,2013-02-17 04:29:00,
2013-02-16 23:34:00,29.3,17.9,29.79,NNW,343,3.5,3.5,62,0.00,BKN,,0.01,0.0,WeatherDisplay:10.37,2013-02-17 04:34:00,
2013-02-16 23:39:00,29.2,17.8,29.79,NNW,348,5.8,5.8,62,0.00,BKN,,0.01,0.0,WeatherDisplay:10.37,2013-02-17 04:39:00,
2013-02-16 23:44:00,29.1,17.7,29.79,North,350,6.9,6.9,62,0.00,BKN,,0.01,0.0,WeatherDisplay:10.37,2013-02-17 04:44:00,
2013-02-16 23:49:00,29.0,17.2,29.79,North,351,3.5,3.5,61,0.00,BKN,,0.01,0.0,WeatherDisplay:10.37,2013-02-17 04:49:00,
2013-02-16 23:54:00,28.9,17.1,29.79,NNW,331,6.9,6.9,61,0.00,BKN,,0.01,0.0,WeatherDisplay:10.37,2013-02-17 04:54:00,
2013-02-16 23:59:00,28.9,16.4,29.79,NNW,331,6.9,6.9,59,0.00,BKN,,0.01,0.0,WeatherDisplay:10.37,2013-02-17 04:59:00,